Regional Weather Roundup
Issued by NWS

Home | Current Version | Previous Version | Text Only | Print | Product List | Glossary Off
Versions: 1 2 3 4 5 6 7 8 9 10 11 12 13 14 15 16 17 18 19 20 21 22 23 24 25 26 27 28 29 30 31 32 33 34 35 36 37 38 39 40 41 42 43 44 45 46 47 48 49 50

000
ASUS43 KOAX 280310
RWRNE

WEATHER ROUNDUP FOR NEBRASKA
NATIONAL WEATHER SERVICE OMAHA NE
1000 PM CDT WED AUG 27 2014

NOTES: SATELLITE DATA IS BEING USED TO AUGMENT CLOUD COVER ABOVE
       12000 FEET.
       "FAIR" INDICATES FEW OR NO CLOUDS BELOW 12,000 FEET WITH NO
       SIGNIFICANT WEATHER AND/OR OBSTRUCTIONS TO VISIBILITY.

  * THESE STATIONS DO NOT REPORT WEATHER SUCH AS RAIN...SNOW OR FOG.

NEZ001>004-019>022-054>056-280400-
NEBRASKA PANHANDLE

CITY           SKY/WX    TMP DP  RH WIND       PRES   REMARKS
SCOTTSBLUFF    CLOUDY    65  62  90 N7        30.07S
ALLIANCE       CLOUDY    65  63  93 NW5       30.07R
CHADRON        CLOUDY    66  64  93 N7        30.07R
KIMBALL        CLOUDY    62  56  81 N7        30.08F
SIDNEY         CLOUDY    66  59  78 N13       30.10S
$$

NEZ057>060-069>072-079>082-280400-
SOUTHWEST NEBRASKA

CITY           SKY/WX    TMP DP  RH WIND       PRES   REMARKS
NORTH PLATTE   CLOUDY    68  66  93 SE3       30.04S
IMPERIAL       CLOUDY    69  65  86 SE15      30.01R
LEXINGTON      LGT RAIN  70  67  92 SE7       30.04S
MCCOOK         MOCLDY    68  66  93 E5        30.01R
OGALLALA       HVY RAIN  61  60  97 N22G46    30.04S VSB 3/4
$$

NEZ005>010-023>029-035>040-094-280400-
NORTH CENTRAL NEBRASKA

CITY           SKY/WX    TMP DP  RH WIND       PRES   REMARKS
VALENTINE      HVY RAIN  69  68  96 E8        30.05S FOG
AINSWORTH      CLOUDY    67  66  96 CALM      30.06R
BROKEN BOW     LGT RAIN  70  68  93 SE5       30.05R
O`NEILL        CLOUDY    70  70  98 E7        30.07R FOG
ORD            LGT RAIN  71  69  93 SE7       30.04R
THEDFORD       CLOUDY    70  67  91 SE6       30.05F
$$

NEZ041-046>049-061>064-073>077-083>087-280400-
SOUTH CENTRAL NEBRASKA

CITY           SKY/WX    TMP DP  RH WIND       PRES   REMARKS
GRAND ISLAND   LGT RAIN  72  70  93 SE7       30.04S
AURORA         LGT RAIN  72  72 100 SE3       30.05S
HASTINGS       LGT RAIN  72  68  87 SE9       30.04S
HEBRON         LGT RAIN  73  70  88 CALM      30.03S
HOLDREGE       LGT RAIN  68  66  93 SE6       30.02S
KEARNEY *      CLOUDY    70  66  88 SE8       30.04S
YORK           CLOUDY    72 N/A N/A E8        30.05S HAZE
$$

NEZ011>018-030>034-042>045-280400-
NORTHEAST NEBRASKA

CITY           SKY/WX    TMP DP  RH WIND       PRES   REMARKS
NORFOLK        CLOUDY    70  67  90 E10       30.07R
ALBION         CLOUDY    71  68  90 SE8       30.06S FOG
BLAIR          CLOUDY    72  69  92 E8        30.07R
FREMONT        CLOUDY    72  69  90 E7        30.07R
TEKAMAH        CLOUDY    71  68  90 E3        30.08R
WAYNE          CLOUDY    69  68  96 E7        30.09R
$$

NEZ050>053-065>068-078-088>093-280400-
SOUTHEAST NEBRASKA

CITY           SKY/WX    TMP DP  RH WIND       PRES   REMARKS
LINCOLN        CLOUDY    73  70  90 E7        30.05R
OMAHA EPPLEY   CLOUDY    73  68  84 SE6       30.07R
BEATRICE       CLOUDY    73  71  95 E5        30.03S
FALLS CITY     MOCLDY    73  70  90 E8        30.04R
NEBRASKA CITY  CLOUDY    71  71 100 E6        30.06R
PLATTSMOUTH    CLOUDY    71  69  92 E6        30.06S
$$

NEZ044-045-051>053-067-280400-
OMAHA AREA

CITY           SKY/WX    TMP DP  RH WIND       PRES   REMARKS
OMAHA EPPLEY   CLOUDY    73  68  84 SE6       30.07R
BLAIR          CLOUDY    72  69  92 E8        30.07R
FREMONT        CLOUDY    72  69  90 E7        30.07R
MILLARD        CLOUDY    73  70  90 E3        30.06R
OFFUTT AFB     CLOUDY    72  72 100 E8        30.06S
PLATTSMOUTH    CLOUDY    71  69  92 E6        30.06S
WAHOO          RAIN      71  68  90 CALM      30.07R
$$


USA.gov is the U.S. government's official web portal to all federal, state and local government web resources and services.